User: anonymous   Login
Location: Oshawa
(43.9000°N, 78.8670°W)
Time: 12:34:08
(UTC-04:00)
Language:

Cosmos 2333 Rocket - Orbit

View from above orbital plane
View from above orbital plane
View from above satellite
View from above satellite

Ground track
Ground track

The orbit data is extracted from the following two-line orbital elements,

1 24298U 96051B   17262.90558877 -.00000150 +00000-0 -54966-4 0  9995
2 24298 070.8469 222.4997 0013411 035.6308 324.5705 14.12491311084938
Epoch (UTC): 19 September 2017 21:44:02
Eccentricity: 0.0013411
inclination: 70.8469°
perigee height: 841 km
apogee height: 860 km
right ascension of ascending node: 222.4997°
argument of perigee: 35.6308°
revolutions per day: 14.12491311
mean anomaly at epoch: 324.5705°
orbit number at epoch: 8493

The dashed part of the orbit path shows where the satellite is in the earth's shadow,  

DLR